SHT21B EGJB-EGLL

Flight info

Callsign SHT21B
Flight time 0h 33m
Altitude 19000
Route ORIST L982 ROXOG
Aircraft A20N/M-SDGHIJ1LRWXY/SB1

Departure

Time 2026-04-22 13:15
Airport Guernsey Airport (EGJB)

Arrival

Time 2026-04-22 13:48
Airport London Heathrow Airport (EGLL)
Time Latitude Longitude Altitude Speed Heading
2026-04-22 13:06 49.43261 -2.59682 339 ft 0 kts 177°
2026-04-22 13:08 49.43265 -2.59682 339 ft 2 kts 177°
2026-04-22 13:08 49.43280 -2.59684 338 ft 4 kts 177°
2026-04-22 13:08 49.43310 -2.59686 339 ft 2 kts 177°
2026-04-22 13:08 49.43342 -2.59686 338 ft 5 kts 199°
2026-04-22 13:09 49.43364 -2.59657 334 ft 0 kts 249°
2026-04-22 13:09 49.43356 -2.59718 335 ft 9 kts 259°
2026-04-22 13:09 49.43345 -2.59822 338 ft 10 kts 265°
2026-04-22 13:09 49.43344 -2.59931 339 ft 10 kts 269°
2026-04-22 13:10 49.43340 -2.60037 337 ft 5 kts 266°
2026-04-22 13:10 49.43339 -2.60041 337 ft 0 kts 266°
2026-04-22 13:10 49.43339 -2.60059 339 ft 12 kts 268°
2026-04-22 13:11 49.43335 -2.60247 339 ft 21 kts 268°
2026-04-22 13:11 49.43328 -2.60472 336 ft 6 kts 266°
2026-04-22 13:11 49.43328 -2.60473 336 ft 0 kts 266°
2026-04-22 13:11 49.43326 -2.60512 335 ft 16 kts 266°
2026-04-22 13:12 49.43340 -2.60714 335 ft 22 kts 280°
2026-04-22 13:12 49.43355 -2.60952 337 ft 17 kts 281°
2026-04-22 13:12 49.43361 -2.61144 340 ft 20 kts 268°
2026-04-22 13:12 49.43377 -2.61319 338 ft 14 kts 302°
2026-04-22 13:13 49.43417 -2.61374 352 ft 10 kts 330°
2026-04-22 13:13 49.43469 -2.61393 349 ft 0 kts 356°
2026-04-22 13:13 49.43472 -2.61392 349 ft 0 kts
2026-04-22 13:13 49.43477 -2.61370 352 ft 0 kts 96°
2026-04-22 13:14 49.43477 -2.61369 352 ft 1 kts 96°
2026-04-22 13:14 49.43476 -2.60964 347 ft 78 kts 88°
2026-04-22 13:14 49.43505 -2.59787 409 ft 134 kts 87°
2026-04-22 13:15 49.43501 -2.58287 993 ft 147 kts 90°
2026-04-22 13:15 49.43457 -2.56701 1910 ft 148 kts 91°
2026-04-22 13:15 49.43496 -2.55030 2601 ft 168 kts 88°
2026-04-22 13:15 49.43611 -2.53130 3345 ft 188 kts 89°
2026-04-22 13:16 49.43771 -2.51100 4266 ft 197 kts 79°
2026-04-22 13:16 49.44505 -2.49197 5141 ft 221 kts 49°
2026-04-22 13:16 49.45909 -2.48096 6140 ft 233 kts 20°
2026-04-22 13:16 49.47462 -2.47534 7186 ft 234 kts 18°
2026-04-22 13:17 49.49111 -2.46979 7985 ft 248 kts 17°
2026-04-22 13:17 49.50844 -2.46366 8531 ft 270 kts 17°
2026-04-22 13:17 49.52764 -2.45658 9171 ft 287 kts 17°
2026-04-22 13:17 49.54692 -2.44930 10157 ft 291 kts 16°
2026-04-22 13:18 49.56670 -2.44177 11055 ft 296 kts 15°
2026-04-22 13:18 49.58687 -2.43404 11971 ft 300 kts 15°
2026-04-22 13:18 49.60730 -2.42621 12889 ft 305 kts 15°
2026-04-22 13:18 49.62801 -2.41826 13791 ft 309 kts 14°
2026-04-22 13:19 49.64904 -2.41018 14596 ft 314 kts 14°
2026-04-22 13:19 49.67038 -2.40199 15370 ft 318 kts 14°
2026-04-22 13:19 49.69173 -2.39214 16130 ft 322 kts 25°
2026-04-22 13:19 49.71066 -2.37358 16905 ft 324 kts 43°
2026-04-22 13:20 49.72592 -2.34775 17611 ft 331 kts 51°
2026-04-22 13:20 49.74121 -2.31964 17824 ft 352 kts 51°
2026-04-22 13:20 49.75744 -2.28990 18050 ft 373 kts 51°
2026-04-22 13:20 49.77454 -2.25868 18523 ft 383 kts 51°
2026-04-22 13:21 49.79183 -2.22717 18746 ft 385 kts 51°
2026-04-22 13:21 49.80911 -2.19566 18849 ft 384 kts 50°
2026-04-22 13:21 49.82648 -2.16395 18953 ft 385 kts 50°
2026-04-22 13:21 49.84377 -2.13236 19051 ft 385 kts 50°
2026-04-22 13:22 49.86113 -2.10058 19147 ft 385 kts 50°
2026-04-22 13:22 49.87846 -2.06882 19195 ft 386 kts 50°
2026-04-22 13:22 49.89574 -2.03709 19199 ft 385 kts 50°
2026-04-22 13:22 49.91300 -2.00539 19205 ft 385 kts 50°
2026-04-22 13:23 49.93033 -1.97351 19211 ft 385 kts 50°
2026-04-22 13:23 49.94755 -1.94179 19212 ft 385 kts 50°
2026-04-22 13:23 49.96482 -1.90994 19217 ft 385 kts 50°
2026-04-22 13:23 49.98212 -1.87830 19221 ft 384 kts 47°
2026-04-22 13:24 50.00158 -1.84991 19227 ft 384 kts 38°
2026-04-22 13:24 50.02359 -1.82664 19226 ft 383 kts 30°
2026-04-22 13:24 50.04699 -1.80798 19230 ft 383 kts 26°
2026-04-22 13:24 50.07073 -1.78932 19229 ft 383 kts 27°
2026-04-22 13:25 50.09446 -1.77049 19234 ft 383 kts 27°
2026-04-22 13:25 50.11788 -1.75086 19232 ft 382 kts 31°
2026-04-22 13:25 50.13958 -1.72681 19234 ft 382 kts 39°
2026-04-22 13:25 50.15982 -1.70026 19238 ft 382 kts 39°
2026-04-22 13:26 50.18027 -1.67373 19238 ft 382 kts 39°
2026-04-22 13:26 50.20076 -1.64725 19238 ft 381 kts 39°
2026-04-22 13:26 50.22109 -1.62095 19240 ft 381 kts 39°
2026-04-22 13:26 50.24150 -1.59452 19244 ft 380 kts 38°
2026-04-22 13:27 50.26321 -1.57106 19243 ft 380 kts 29°
2026-04-22 13:27 50.28697 -1.55296 19246 ft 379 kts 21°
2026-04-22 13:27 50.31198 -1.54003 19245 ft 379 kts 17°
2026-04-22 13:27 50.33712 -1.52787 19251 ft 378 kts 17°
2026-04-22 13:28 50.36227 -1.51552 19248 ft 379 kts 17°
2026-04-22 13:28 50.38744 -1.50311 19249 ft 378 kts 17°
2026-04-22 13:28 50.41253 -1.49075 19250 ft 378 kts 17°
2026-04-22 13:28 50.43762 -1.47839 19252 ft 378 kts 17°
2026-04-22 13:29 50.45315 -1.47074 19252 ft 378 kts 17°
2026-04-22 13:29 50.47816 -1.45842 19255 ft 378 kts 17°
2026-04-22 13:29 50.50331 -1.44601 19257 ft 378 kts 17°
2026-04-22 13:29 50.52827 -1.43339 19255 ft 378 kts 19°
2026-04-22 13:30 50.55216 -1.41682 19258 ft 378 kts 27°
2026-04-22 13:30 50.57531 -1.39671 19255 ft 377 kts 28°
2026-04-22 13:30 50.59839 -1.37687 19258 ft 378 kts 27°
2026-04-22 13:30 50.62148 -1.35713 19266 ft 378 kts 27°
2026-04-22 13:31 50.63649 -1.34427 19260 ft 378 kts 28°
2026-04-22 13:31 50.65975 -1.32433 19263 ft 377 kts 28°
2026-04-22 13:31 50.68281 -1.30453 19262 ft 377 kts 28°
2026-04-22 13:31 50.70591 -1.28462 19155 ft 378 kts 28°
2026-04-22 13:32 50.73662 -1.25810 18616 ft 377 kts 28°
2026-04-22 13:32 50.75184 -1.24492 18272 ft 374 kts 28°
2026-04-22 13:32 50.77408 -1.22389 17728 ft 369 kts 33°
2026-04-22 13:32 50.79126 -1.20606 17309 ft 365 kts 33°
2026-04-22 13:33 50.81244 -1.18425 16794 ft 363 kts 33°
2026-04-22 13:33 50.83370 -1.16240 16283 ft 364 kts 34°
2026-04-22 13:33 50.85483 -1.14066 15784 ft 361 kts 34°
2026-04-22 13:33 50.87584 -1.11909 15295 ft 358 kts 34°
2026-04-22 13:34 50.89647 -1.09819 14811 ft 357 kts 35°
2026-04-22 13:34 50.91774 -1.07704 14320 ft 356 kts 34°
2026-04-22 13:34 50.93878 -1.05647 13824 ft 354 kts 34°
2026-04-22 13:34 50.95981 -1.03629 13288 ft 352 kts 34°
2026-04-22 13:35 50.98070 -1.01641 12775 ft 348 kts 34°
2026-04-22 13:35 51.00108 -0.99707 12274 ft 346 kts 34°
2026-04-22 13:35 51.02170 -0.97762 11779 ft 343 kts 34°
2026-04-22 13:35 51.04225 -0.95828 11284 ft 340 kts 34°
2026-04-22 13:36 51.06237 -0.93944 10796 ft 338 kts 34°
2026-04-22 13:36 51.08233 -0.92088 10587 ft 330 kts 34°
2026-04-22 13:36 51.10255 -0.90204 10479 ft 338 kts 35°
2026-04-22 13:36 51.12287 -0.88308 10381 ft 335 kts 34°
2026-04-22 13:37 51.14386 -0.86833 10302 ft 341 kts 17°
2026-04-22 13:37 51.16817 -0.86584 10287 ft 350 kts
2026-04-22 13:37 51.19236 -0.86767 10210 ft 345 kts
2026-04-22 13:37 51.21567 -0.86958 9768 ft 335 kts
2026-04-22 13:38 51.23874 -0.87152 9251 ft 326 kts
2026-04-22 13:38 51.28304 -0.87565 8218 ft 312 kts
2026-04-22 13:38 51.30458 -0.87785 7711 ft 305 kts
2026-04-22 13:39 51.32533 -0.88009 7216 ft 300 kts
2026-04-22 13:39 51.34603 -0.88239 6734 ft 295 kts
2026-04-22 13:39 51.36636 -0.88479 6213 ft 290 kts
2026-04-22 13:39 51.38637 -0.88719 5710 ft 286 kts
2026-04-22 13:40 51.40557 -0.88963 5313 ft 264 kts
2026-04-22 13:40 51.42292 -0.89051 4829 ft 238 kts 17°
2026-04-22 13:40 51.43683 -0.88061 4333 ft 208 kts 49°
2026-04-22 13:40 51.44692 -0.86638 4196 ft 183 kts 41°
2026-04-22 13:41 51.45719 -0.85569 4098 ft 179 kts 40°
2026-04-22 13:41 51.46785 -0.84471 3994 ft 181 kts 40°
2026-04-22 13:41 51.47827 -0.83402 3973 ft 173 kts 39°
2026-04-22 13:41 51.48843 -0.82365 4047 ft 179 kts 39°
2026-04-22 13:42 51.49792 -0.81118 3987 ft 174 kts 60°
2026-04-22 13:42 51.50088 -0.79371 3984 ft 162 kts 99°
2026-04-22 13:42 51.49755 -0.77608 3899 ft 168 kts 111°
2026-04-22 13:42 51.49248 -0.75881 3578 ft 178 kts 112°
2026-04-22 13:43 51.48684 -0.74011 3217 ft 186 kts 111°
2026-04-22 13:43 51.48282 -0.72131 3076 ft 172 kts 104°
2026-04-22 13:43 51.47954 -0.70365 2817 ft 161 kts 104°
2026-04-22 13:43 51.47736 -0.68640 2570 ft 154 kts 93°
2026-04-22 13:44 51.47689 -0.66985 2374 ft 144 kts 91°
2026-04-22 13:44 51.47690 -0.65413 2207 ft 139 kts 89°
2026-04-22 13:44 51.47685 -0.63858 2025 ft 144 kts 89°
2026-04-22 13:44 51.47703 -0.62296 1847 ft 135 kts 89°
2026-04-22 13:45 51.47702 -0.60949 1660 ft 117 kts 90°
2026-04-22 13:45 51.47707 -0.59710 1501 ft 112 kts 89°
2026-04-22 13:45 51.47717 -0.58405 1341 ft 117 kts 89°
2026-04-22 13:45 51.47719 -0.57167 1189 ft 108 kts 89°
2026-04-22 13:46 51.47721 -0.55957 1047 ft 112 kts 90°
2026-04-22 13:46 51.47726 -0.54685 883 ft 114 kts 89°
2026-04-22 13:46 51.47730 -0.53419 738 ft 115 kts 90°
2026-04-22 13:46 51.47734 -0.52431 609 ft 116 kts 90°
2026-04-22 13:47 51.47734 -0.52316 591 ft 116 kts 90°
2026-04-22 13:47 51.47739 -0.51156 435 ft 111 kts 89°
2026-04-22 13:47 51.47740 -0.49867 301 ft 111 kts 89°
2026-04-22 13:48 51.47750 -0.48568 145 ft 117 kts 91°
2026-04-22 13:48 51.47749 -0.47364 85 ft 93 kts 92°
2026-04-22 13:48 51.47754 -0.46517 89 ft 57 kts 90°
2026-04-22 13:48 51.47754 -0.46253 87 ft 12 kts 93°
2026-04-22 13:49 51.47705 -0.46154 86 ft 13 kts 143°
2026-04-22 13:49 51.47633 -0.46071 89 ft 2 kts 149°
2026-04-22 13:49 51.47627 -0.46066 88 ft 10 kts 152°
2026-04-22 13:49 51.47583 -0.46099 90 ft 12 kts 232°
2026-04-22 13:50 51.47577 -0.46202 86 ft 9 kts 290°
2026-04-22 13:50 51.47593 -0.46324 87 ft 14 kts 270°
2026-04-22 13:50 51.47592 -0.46496 87 ft 18 kts 270°
2026-04-22 13:50 51.47590 -0.46714 87 ft 21 kts 269°
2026-04-22 13:51 51.47584 -0.46965 88 ft 24 kts 266°
2026-04-22 13:51 51.47582 -0.47251 90 ft 27 kts 269°
2026-04-22 13:51 51.47581 -0.47574 87 ft 31 kts 270°
2026-04-22 13:51 51.47580 -0.47931 88 ft 33 kts 269°
2026-04-22 13:52 51.47579 -0.48229 88 ft 7 kts 270°
2026-04-22 13:52 51.47578 -0.48335 89 ft 11 kts 268°
2026-04-22 13:52 51.47553 -0.48461 89 ft 12 kts 201°
2026-04-22 13:52 51.47459 -0.48477 86 ft 15 kts 180°
2026-04-22 13:53 51.47344 -0.48476 86 ft 18 kts 179°